STARLINK-1300, 45374

Orbit data source: Space-Track

STARLINK-1300, 45374 is a payload satellite owned by SpaceX/Seattle (US) in LEO that was launched on Wed, 18 Mar 2020 UTC via an FALCON 9 launch vehicle from the Air Force Eastern Test Range (AFETR). Payload-class satellites include a variety of spacecraft equipped with specific instruments for various scientific and technological missions. These include communications satellites like Starlink; space stations such as the ISS; scientific satellites like the Hubble; Earth observation satellites from companies like Planet Labs, Umbra, and HawkEye 360; GPS; miniature CubeSats for education and research; and military/defense satellites.

Loading next visibility...
Identifier
45374, 2020-019Q
Orbit
LEO
Country
Flag of USUS
Related business
Manufacturer
SpaceX/Seattle
Mission
Operational Commercial Communications
Bus & Motor
STARLINK, Unknown motor
Mass
260 kg wet, ~248 kg dry
Launch date (UTC)
2020-03-18 (6 years ago)
Launch vehicle
FALCON 9
Launch site
Air Force Eastern Test Range (AFETR)
Object type
Payload
Rocket body
Debris
Shape & HBR
Box + 1 Pan, 10.1 m
Radar Cross Section
13.562 m², Large (>1 m²)

Expand to show TLE details & history
Last TLE update: 13 hours ago

TLE from 13 hours ago
0 STARLINK-1300
1 45374U 20019Q   25288.99312782  .00004787  00000-0  33995-3 0  9999
2 45374  53.0529  96.1840 0001436  88.8844 271.2310 15.06412314307925
Epoch: 2025-10-15T23:50Z
TLE epoch observation values (Epoch: 2025-10-15T23:50:06.243Z)
Latitude
0.00001°
Longitude
73.89876°
Altitude
548.032 km
Speed
7.589 km/s
True Right ascension
06h 24m 44s
True Declination
0° 00' 00"
Sunlit
Object was in daylight at epoch
Visualization orbit readout
Latitude
Unknown
Longitude
Unknown
Altitude
Unknown
Speed
Unknown
Apparent Right ascension
Unknown
Apparent Declination
Unknown
Sunlit
N/A
Visualization observer readout
Local Sidereal Time
07:42:35
Azimuth
Unknown
Elevation
Unknown
Doppler factor
Unknown
Orbital elements
Apogee altitude
548.439 km
Perigee altitude
546.45 km
Semi-major axis
6,925.582 km
Eccentricity
0.00014
Inclination
53.0529°
RAAN
96.184°
Arg. of periapsis
88.8844°
True anomaly
271.21455°
Mean anomaly
271.231°
Eccentric anomaly
271.22277°
Mean motion
3.76581 °/min
Orbital period
95.6 mins
BSTAR
0.00033995
Loading maneuver chart data...
Computing Atmospheric mass density...

Documentation

Showing up to 5 results
|